Arlington, DC

5:26 AM EDT on September 30, 2016 (GMT -0400)
Ronald Reagan Washington National

Weather History for KDCA - November, 2013

Change the Weather History Date:

Sunday, November 3, 2013

  Actual Average Record
Temperature  
Mean Temperature 52 °F 54 °F  
Max Temperature 59 °F 63 °F 80 °F (1974)
Min Temperature 44 °F 45 °F 29 °F (1917)
Degree Days  
Heating Degree Days 13 11  
Month to date heating degree days 16 33  
Since 1 July heating degree days 181 262  
Cooling Degree Days 0 0  
Month to date cooling degree days 2 0  
Year to date cooling degree days 1719 1547  
Growing Degree Days 2 (Base 50)    
Moisture  
Dew Point 32 °F    
Average Humidity 47    
Maximum Humidity 66    
Minimum Humidity 28    
Precipitation  
Precipitation 0.00 in 0.11 in 0.93 in (1962)
Month to date precipitation 0.14 0.34  
Year to date precipitation 35.93 33.86  
Snow  
Snow 0.00 in 0.00 in T in (1951)
Month to date snowfall 0.0 0.0  
Since 1 July snowfall 0.0 0.0  
Snow Depth 0.00 in    
Sea Level Pressure  
Sea Level Pressure 30.16 in    
Wind  
Wind Speed 11 mph (North)    
Max Wind Speed 22 mph    
Max Gust Speed 28 mph    
Visibility 10 miles    
Events      
T = Trace of Precipitation, MM = Missing Value Source: NWS Daily Summary

Daily Weather History Graph

Daily Weather History Graph

Search for Another Location

Airport or City:

Trip Planner

Search our weather history database for the weather conditions in past years. The results will help you decide how hot, cold, wet, or windy it might be!

Date:

Astronomy

Nov. 03, 2013 Rise Set
Actual Time 6:37 AM EST 5:05 PM EST
Civil Twilight 6:09 AM EST 5:32 PM EST
Nautical Twilight 5:38 AM EST 6:04 PM EST
Astronomical Twilight 5:07 AM EST 6:35 PM EST
Moon 6:39 AM EST (11/3) 5:18 PM EST (11/3)
Length of Visible Light 11h 23m
Length of Day
10h 27m
New Moon, 0% of the Moon is Illuminated
Nov 3
New Moon
Nov 10
First Quarter
Nov 17
Full
Nov 25
Last Quarter
Dec 2
New

Hourly Weather History & Observations

Time (EST) Temp. Windchill Dew Point Humidity Pressure Visibility Wind Dir Wind Speed Gust Speed Precip Events Conditions
12:52 AM 52.0 °F - 37.0 °F 57% 29.90 in 10.0 mi NW 8.1 mph 16.1 mph N/A   Clear
1:52 AM 52.0 °F - 37.0 °F 57% 29.92 in 10.0 mi WNW 8.1 mph - N/A   Clear
1:52 AM 51.1 °F - 37.0 °F 59% 29.94 in 10.0 mi Calm Calm - N/A   Clear
2:52 AM 50.0 °F - 37.0 °F 61% 29.96 in 10.0 mi WNW 4.6 mph - N/A   Partly Cloudy
3:52 AM 50.0 °F - 37.0 °F 61% 29.97 in 10.0 mi West 6.9 mph - N/A   Partly Cloudy
4:52 AM 50.0 °F - 37.0 °F 61% 30.00 in 10.0 mi Calm Calm - N/A   Mostly Cloudy
5:52 AM 50.0 °F - 37.9 °F 63% 30.03 in 10.0 mi NNW 9.2 mph - N/A   Mostly Cloudy
6:52 AM 50.0 °F - 39.9 °F 68% 30.08 in 10.0 mi North 13.8 mph - N/A   Mostly Cloudy
7:52 AM 51.1 °F - 39.9 °F 66% 30.12 in 10.0 mi North 15.0 mph - N/A   Mostly Cloudy
8:52 AM 52.0 °F - 39.0 °F 61% 30.16 in 10.0 mi NNW 16.1 mph 21.9 mph N/A   Mostly Cloudy
9:52 AM 52.0 °F - 35.1 °F 53% 30.18 in 10.0 mi NNW 18.4 mph - N/A   Mostly Cloudy
10:52 AM 55.9 °F - 34.0 °F 44% 30.21 in 10.0 mi North 16.1 mph 27.6 mph N/A   Scattered Clouds
11:52 AM 57.0 °F - 34.0 °F 42% 30.21 in 10.0 mi North 19.6 mph 25.3 mph N/A   Scattered Clouds
12:52 PM 57.9 °F - 30.0 °F 35% 30.21 in 10.0 mi North 13.8 mph - N/A   Partly Cloudy
1:52 PM 57.9 °F - 27.0 °F 31% 30.22 in 10.0 mi NNW 16.1 mph 21.9 mph N/A   Partly Cloudy
2:52 PM 57.9 °F - 28.0 °F 32% 30.24 in 10.0 mi NNE 13.8 mph - N/A   Scattered Clouds
3:52 PM 57.0 °F - 25.0 °F 29% 30.25 in 10.0 mi North 10.4 mph - N/A   Partly Cloudy
4:52 PM 54.0 °F - 21.0 °F 28% 30.28 in 10.0 mi North 10.4 mph - N/A   Partly Cloudy
5:52 PM 52.0 °F - 21.9 °F 31% 30.30 in 10.0 mi North 10.4 mph - N/A   Clear
6:52 PM 50.0 °F - 24.1 °F 36% 30.32 in 10.0 mi North 10.4 mph - N/A   Clear
7:52 PM 50.0 °F - 24.1 °F 36% 30.35 in 10.0 mi NNW 8.1 mph - N/A   Clear
8:52 PM 48.9 °F - 25.0 °F 39% 30.39 in 10.0 mi NNE 9.2 mph - N/A   Clear
9:52 PM 46.9 °F - 24.1 °F 41% 30.43 in 10.0 mi NNE 11.5 mph - N/A   Clear
10:52 PM 45.0 °F 39.3 °F 24.1 °F 44% 30.45 in 10.0 mi NNE 11.5 mph - N/A   Clear